Location: Erba
(45.8000°N, 9.2500°E)
Time: 12:00:40
(UTC+01:00)

ISS - Visible Passes

Search period start: 18 February 2018 00:00
Search period end: 28 February 2018 00:00
Orbit: 403 x 407 km, 51.6° (Epoch: 19 February)

Date Brightness Start Highest point End Pass type
(mag) Time Alt. Az. Time Alt. Az. Time Alt. Az.
24 Feb -0.2 06:34:17 10° SE 06:34:35 10° SE 06:34:53 10° SE visible
26 Feb -1.3 06:23:35 10° S 06:26:10 22° SE 06:28:46 10° E visible
27 Feb -0.8 05:32:36 10° SSE 05:34:06 13° SE 05:35:35 10° ESE visible
